Wind_Speed
8 10 12 14 15 15 13 12 11 11 10 9 8 7 8 7 6 4 2 3 5 7 8 10 11 14 16 17 16 14 12 13 15 19 20 21 21 21 20 18 15 14 12
5 8 10 12 13 13 13 11 10 10 10 10 10 9 8 8 6 4 3 4 4 6 7 9 12 15 18 19 18 15 13 12 11 14 16 18 19 18 16 15 14 13 12
4 6 9 11 12 12 12 10 10 10 10 11 11 11 10 9 7 5 4 4 4 5 6 8 10 14 18 21 21 18 15 14 11 11 12 13 14 14 12 11 10 11 12
3 4 7 10 11 11 10 10 10 10 11 12 12 12 11 10 8 6 5 5 5 5 5 6 7 10 15 19 21 20 17 16 13 10 8 9 10 10 10 9 8 9 11
4 3 6 8 9 9 9 10 10 10 11 11 12 13 13 12 10 8 7 6 6 6 5 5 5 6 12 17 20 21 19 17 14 10 8 8 8 9 9 9 8 8 9
4 3 5 7 8 8 8 9 10 10 11 11 12 13 13 13 12 10 9 8 7 6 6 5 3 3 8 13 18 20 19 17 15 13 12 10 9 10 11 10 9 8 9
4 3 4 5 6 6 7 8 8 10 11 11 12 13 13 13 13 12 11 9 8 7 6 5 3 2 5 10 15 18 18 17 16 16 15 14 12 12 12 12 10 9 9
5 4 4 4 5 5 6 7 8 9 11 12 12 13 13 13 13 13 12 11 9 8 7 5 4 3 5 8 12 15 15 16 17 18 18 17 16 15 14 13 11 10 9
6 5 4 4 4 4 6 7 8 10 11 12 13 13 13 13 13 13 13 11 9 8 7 6 6 5 5 7 9 11 13 15 15 16 18 19 19 17 16 14 12 10 10
6 6 6 5 5 5 6 7 8 9 11 12 13 14 13 12 12 13 13 11 10 9 8 7 7 8 8 8 8 10 11 12 12 11 13 14 15 15 15 14 12 11 10
7 8 8 7 6 7 7 8 9 9 10 11 12 13 13 12 12 12 12 11 10 9 9 8 8 9 10 10 10 10 11 11 10 11 11 11 10 10 11 12 12 11 11
8 9 10 10 9 9 9 9 9 9 10 10 11 12 13 13 12 12 12 11 10 9 9 8 8 9 11 12 12 12 12 11 10 11 12 11 10 10 10 12 12 12 12
11 12 12 13 12 11 12 12 11 10 10 9 10 11 12 12 12 12 12 11 10 9 8 8 7 8 10 13 14 15 15 14 14 14 14 14 14 13 12 12 12 12 12
13 15 16 16 15 15 14 14 13 12 10 9 8 9 11 11 12 12 13 12 10 9 8 8 8 8 10 13 15 17 18 18 18 18 18 18 17 16 14 14 13 13 12
16 18 19 19 18 17 16 15 15 14 11 9 8 8 9 10 10 11 13 13 11 10 8 8 9 10 11 12 14 16 18 19 21 21 22 21 21 19 18 17 16 15 14
17 19 20 20 20 19 17 16 15 14 13 11 9 8 8 9 10 11 12 13 12 11 9 9 10 11 12 13 14 15 17 19 20 21 22 23 22 22 20 19 18 17 16
16 17 18 18 18 18 16 15 14 14 14 13 11 9 8 8 9 11 12 13 13 12 11 11 12 12 13 14 15 15 17 17 19 20 22 22 23 22 21 20 19 18 18
16 16 16 15 16 15 14 14 14 15 14 14 13 12 11 9 9 10 11 12 13 13 13 12 13 14 14 15 15 16 16 16 17 19 20 22 22 23 22 21 20 19 18
15 15 14 14 14 14 13 13 15 16 16 16 16 14 14 12 11 11 12 13 14 14 15 14 13 15 16 17 17 16 16 16 16 17 18 20 21 22 22 21 20 19 18
17 16 15 16 16 16 16 16 17 18 18 18 16 15 14 14 14 13 13 14 14 15 16 16 15 15 17 18 18 17 16 16 16 16 16 18 19 20 20 20 19 18 17
20 18 18 18 18 19 19 19 19 19 19 18 18 17 16 15 15 16 16 16 16 17 18 18 17 17 17 19 20 19 18 17 16 16 15 15 17 19 20 20 20 19 18
22 22 22 21 21 20 21 21 20 20 19 19 18 18 17 17 17 18 18 19 19 20 21 21 20 19 18 19 20 21 20 18 17 16 14 14 15 17 20 21 21 21 20
23 23 24 25 24 23 23 22 21 20 18 18 18 18 18 19 19 20 21 21 22 23 23 23 22 20 19 19 20 21 21 20 18 16 14 13 13 15 18 21 22 22 21
26 25 26 27 26 25 24 22 21 19 17 17 17 18 20 21 22 22 23 24 24 24 24 25 24 22 20 20 21 22 23 21 19 17 15 13 13 14 16 20 21 22 22
27 28 28 28 26 25 24 22 21 19 18 18 19 20 22 23 24 24 24 24 24 24 25 26 26 25 23 21 21 22 23 24 23 20 18 15 13 13 14 17 19 20 21
29 30 30 26 24 23 23 21 20 20 20 20 22 23 24 24 25 25 25 24 24 24 25 26 27 27 24 22 21 22 23 24 26 24 21 18 16 14 14 15 16 17 18
Wind_Direction
25 23 22 22 22 23 24 24 23 19 16 13 7 2 4 7 9 3 328 280 261 253 249 242 238 235 231 227 226 227 228 221 219 215 215 217 218 216 213 214 217 222 226
1 9 12 14 17 19 20 20 19 16 12 8 3 358 357 358 358 355 343 313 279 257 252 249 245 240 234 230 226 225 225 220 209 206 208 211 211 206 199 203 212 220 224
321 352 3 8 12 15 16 15 13 10 7 4 2 359 356 353 350 345 335 323 300 274 262 258 254 243 233 228 224 222 221 220 212 202 197 196 199 194 191 197 210 219 219
279 334 357 4 8 12 15 13 9 6 4 0 359 359 358 355 348 338 326 313 303 294 284 277 265 241 227 222 219 219 218 218 218 213 200 190 190 193 195 199 211 215 212
257 310 349 359 6 12 17 16 10 5 3 1 358 359 0 357 350 338 325 312 304 302 300 292 281 240 221 217 218 217 216 217 220 220 216 213 208 208 206 208 213 210 205
254 295 336 352 3 13 18 17 13 9 5 2 0 1 2 0 353 342 329 313 304 303 302 294 286 240 216 216 218 216 215 216 222 227 226 224 224 223 218 217 215 208 204
251 275 319 343 0 12 15 13 12 11 9 7 6 5 2 359 355 347 334 319 305 300 298 292 279 244 212 212 215 214 215 218 224 232 235 236 236 232 224 218 213 211 209
241 257 291 327 351 1 6 6 7 9 10 12 12 11 6 1 357 349 338 324 309 298 292 283 263 229 206 209 210 211 215 223 230 237 239 242 240 234 225 215 214 216 217
235 248 267 294 321 334 349 359 2 5 8 12 13 11 9 5 358 351 341 329 313 298 288 273 255 231 207 200 204 210 220 227 232 237 238 239 235 232 219 211 216 222 226
231 240 251 268 286 302 319 336 347 354 1 8 11 12 11 8 0 354 347 335 319 299 286 272 254 237 222 209 205 209 218 223 224 226 224 223 225 219 213 209 215 225 234
235 237 248 259 271 285 297 310 324 337 350 1 8 11 13 11 3 358 354 343 328 307 289 273 257 240 231 222 216 215 217 218 214 212 208 205 202 203 210 213 221 228 236
251 243 246 254 265 275 286 298 309 321 334 347 360 7 11 11 3 0 359 352 339 319 298 279 264 247 236 231 228 226 226 223 217 212 210 209 208 210 217 223 229 236 241
267 259 257 259 265 274 283 290 301 308 317 333 348 359 5 8 1 359 360 358 349 332 309 289 272 254 240 235 234 234 233 231 228 222 220 222 222 223 226 232 236 241 244
273 265 263 264 269 275 282 288 293 299 305 317 332 346 356 2 360 356 356 356 353 341 319 297 279 260 246 240 238 238 237 236 234 231 229 230 233 235 237 240 242 245 245
274 268 265 265 269 273 278 282 285 290 297 303 310 328 341 350 354 350 348 349 351 343 325 298 278 267 257 249 244 240 240 239 239 237 235 235 237 239 241 242 243 247 247
269 267 267 266 267 269 273 276 278 285 290 294 296 306 321 332 340 340 338 340 344 340 325 302 279 267 262 257 251 246 243 242 242 241 240 239 239 239 240 240 242 245 247
270 266 267 267 267 268 271 272 274 280 286 291 291 288 292 304 321 328 328 328 330 330 324 308 287 272 261 256 252 249 248 246 244 242 241 241 240 239 238 238 241 244 245
278 270 269 269 267 267 269 272 276 280 284 285 286 284 280 281 294 311 313 312 314 315 316 309 293 278 266 257 252 251 252 248 245 244 242 241 239 237 236 237 240 242 244
284 277 273 271 268 267 267 271 277 284 286 284 282 282 282 277 284 295 299 299 300 301 303 304 294 281 272 264 256 253 251 247 245 244 243 242 239 237 235 237 239 240 241
284 279 277 273 271 269 268 270 274 280 283 284 283 286 282 282 287 289 289 290 289 289 293 295 291 283 273 267 261 255 250 246 246 246 245 242 238 235 233 232 233 235 237
282 280 277 274 272 270 271 272 273 277 280 279 282 285 282 281 285 288 287 284 283 283 284 286 285 281 274 263 258 255 249 244 244 248 249 244 236 231 228 227 228 231 231
279 279 278 275 273 274 275 276 277 279 279 278 280 283 285 284 286 287 286 283 279 278 278 279 279 277 273 262 255 251 248 243 240 245 251 247 236 227 223 223 225 226 226
272 274 276 275 275 276 277 279 279 279 277 277 279 282 285 286 286 286 283 280 276 273 272 271 272 272 268 260 253 249 246 242 239 240 244 244 236 228 223 222 223 225 225
265 268 270 273 273 275 277 279 279 278 276 277 280 283 286 287 286 284 281 280 277 273 268 266 267 266 262 259 254 248 243 240 238 236 239 240 232 226 224 224 224 224 225
260 261 260 261 264 268 273 277 277 278 279 280 283 285 286 287 286 283 280 278 276 271 265 262 260 258 257 255 251 247 244 240 236 234 236 236 230 223 222 225 225 224 224
251 251 251 251 255 262 268 272 273 277 281 284 286 288 288 287 285 283 281 277 273 268 263 260 258 256 255 250 247 246 245 243 235 229 231 232 230 223 219 222 225 224 224
Height
5894 5893 5893 5891 5890 5889 5888 5887 5886 5886 5885 5884 5883 5882 5882 5881 5881 5880 5879 5879 5878 5878 5878 5878 5878 5879 5880 5881 5882 5884 5885 5885 5886 5887 5889 5890 5892 5893 5894 5895 5896 5898 5899
5895 5894 5894 5892 5891 5890 5889 5888 5887 5886 5886 5885 5884 5883 5882 5881 5880 5880 5879 5878 5877 5877 5877 5876 5876 5877 5877 5879 5881 5883 5884 5885 5886 5886 5887 5889 5890 5891 5892 5893 5895 5896 5897
5895 5895 5894 5893 5892 5891 5890 5889 5888 5887 5886 5885 5884 5883 5882 5881 5880 5879 5878 5877 5876 5876 5875 5875 5874 5874 5874 5876 5878 5881 5883 5884 5885 5886 5887 5888 5889 5890 5890 5892 5894 5895 5896
5894 5894 5894 5893 5893 5891 5890 5889 5888 5887 5886 5886 5884 5883 5882 5881 5879 5878 5878 5877 5876 5875 5874 5873 5872 5871 5871 5873 5876 5879 5881 5883 5884 5885 5886 5887 5889 5889 5890 5891 5893 5894 5895
5893 5894 5894 5893 5893 5892 5891 5890 5889 5888 5887 5886 5884 5883 5882 5880 5879 5878 5877 5876 5875 5874 5872 5871 5870 5869 5870 5872 5874 5877 5879 5882 5883 5885 5886 5887 5888 5889 5890 5891 5892 5893 5894
5892 5893 5893 5893 5893 5892 5892 5891 5889 5888 5887 5885 5884 5882 5881 5879 5878 5876 5875 5874 5874 5873 5872 5871 5870 5869 5869 5871 5873 5876 5878 5880 5882 5884 5885 5887 5888 5889 5890 5891 5892 5893 5894
5891 5892 5893 5893 5892 5892 5892 5891 5889 5888 5886 5885 5883 5882 5880 5879 5877 5875 5874 5873 5872 5872 5871 5870 5870 5869 5869 5870 5872 5875 5877 5879 5881 5882 5884 5885 5887 5888 5889 5890 5891 5892 5893
5890 5891 5892 5892 5892 5892 5891 5891 5889 5888 5886 5885 5883 5881 5879 5878 5876 5875 5873 5872 5871 5871 5870 5870 5870 5870 5870 5870 5871 5874 5876 5878 5879 5880 5882 5883 5885 5887 5888 5889 5890 5892 5893
5889 5890 5891 5891 5891 5891 5891 5890 5889 5887 5886 5884 5882 5880 5878 5877 5875 5874 5872 5871 5870 5869 5869 5869 5869 5869 5870 5870 5871 5873 5875 5876 5877 5878 5880 5882 5883 5885 5886 5888 5889 5890 5892
5888 5889 5889 5890 5890 5890 5890 5889 5888 5887 5885 5883 5881 5879 5877 5876 5874 5873 5871 5869 5868 5868 5868 5868 5868 5869 5869 5870 5871 5872 5873 5874 5875 5877 5878 5880 5882 5883 5885 5886 5888 5889 5890
5888 5888 5888 5888 5889 5889 5889 5888 5887 5886 5884 5882 5880 5878 5876 5875 5873 5872 5870 5868 5867 5866 5866 5866 5867 5868 5869 5869 5870 5871 5872 5873 5875 5876 5877 5879 5881 5882 5884 5886 5887 5888 5889
5887 5887 5887 5887 5888 5887 5887 5886 5886 5885 5883 5881 5879 5877 5875 5874 5872 5870 5869 5867 5866 5865 5864 5864 5865 5866 5867 5868 5869 5870 5871 5873 5874 5876 5877 5879 5880 5882 5883 5884 5885 5886 5887
5886 5886 5885 5886 5886 5886 5885 5884 5884 5883 5882 5880 5878 5876 5874 5872 5871 5869 5868 5866 5865 5864 5863 5863 5864 5864 5865 5866 5867 5869 5870 5872 5873 5875 5876 5878 5879 5880 5882 5882 5883 5884 5885
5886 5885 5884 5884 5883 5883 5883 5882 5881 5881 5879 5878 5876 5874 5872 5871 5869 5868 5866 5865 5864 5863 5862 5862 5863 5863 5863 5864 5865 5867 5868 5870 5872 5873 5874 5875 5877 5878 5879 5880 5881 5881 5882
5883 5883 5882 5882 5881 5880 5880 5879 5878 5877 5876 5875 5874 5872 5871 5869 5868 5867 5865 5864 5862 5861 5860 5860 5861 5861 5861 5862 5863 5864 5865 5867 5868 5870 5871 5872 5874 5875 5876 5877 5878 5879 5879
5881 5880 5879 5879 5878 5877 5876 5876 5875 5874 5873 5872 5871 5871 5869 5868 5867 5866 5864 5862 5861 5860 5859 5859 5858 5859 5859 5859 5860 5861 5862 5863 5865 5866 5867 5869 5870 5871 5872 5873 5874 5875 5876
5877 5876 5875 5875 5874 5873 5872 5871 5871 5870 5869 5869 5868 5868 5867 5866 5864 5863 5862 5860 5859 5857 5857 5856 5856 5856 5856 5856 5856 5858 5859 5860 5861 5862 5863 5864 5865 5867 5868 5869 5871 5872 5873
5872 5872 5871 5871 5870 5869 5868 5867 5867 5866 5865 5865 5865 5864 5864 5863 5862 5861 5860 5858 5856 5855 5854 5853 5852 5852 5853 5853 5853 5854 5855 5856 5857 5858 5859 5860 5861 5862 5864 5865 5867 5868 5869
5868 5867 5867 5867 5867 5866 5865 5864 5863 5862 5861 5861 5861 5860 5860 5859 5858 5858 5857 5855 5854 5852 5851 5850 5849 5849 5848 5849 5849 5850 5852 5852 5853 5854 5855 5855 5856 5858 5860 5861 5863 5864 5865
5863 5863 5863 5863 5862 5862 5861 5861 5859 5858 5858 5857 5856 5856 5855 5855 5854 5854 5852 5851 5850 5848 5847 5846 5846 5845 5844 5844 5845 5846 5848 5849 5849 5850 5851 5851 5852 5854 5855 5857 5859 5860 5862
5857 5857 5858 5858 5857 5857 5857 5856 5855 5855 5854 5853 5852 5851 5851 5850 5849 5848 5847 5846 5845 5844 5843 5842 5841 5841 5841 5840 5840 5842 5843 5845 5846 5846 5847 5847 5848 5849 5851 5853 5855 5856 5858
5851 5851 5852 5852 5852 5852 5852 5851 5851 5850 5850 5849 5848 5847 5846 5845 5844 5843 5841 5841 5840 5839 5838 5838 5837 5836 5836 5836 5836 5837 5838 5841 5843 5843 5843 5843 5844 5845 5847 5849 5850 5852 5854
5845 5845 5846 5846 5846 5846 5846 5846 5845 5844 5844 5844 5843 5842 5841 5840 5838 5837 5836 5834 5834 5834 5833 5832 5831 5831 5831 5831 5831 5833 5834 5836 5838 5840 5840 5840 5841 5841 5843 5844 5846 5848 5850
5838 5839 5839 5839 5839 5839 5839 5840 5840 5840 5840 5839 5838 5837 5836 5834 5832 5831 5830 5829 5828 5828 5827 5826 5826 5825 5826 5826 5826 5827 5829 5832 5834 5836 5837 5837 5837 5838 5839 5841 5843 5845 5847
5831 5832 5832 5832 5833 5834 5834 5834 5835 5835 5834 5834 5833 5831 5830 5828 5826 5825 5824 5823 5822 5821 5820 5820 5819 5819 5820 5820 5821 5822 5824 5826 5829 5831 5833 5834 5835 5835 5836 5837 5839 5841 5843
5824 5824 5825 5825 5827 5828 5829 5830 5830 5830 5829 5828 5826 5825 5823 5821 5820 5818 5817 5816 5815 5814 5814 5813 5813 5813 5813 5814 5815 5817 5818 5820 5823 5826 5828 5830 5832 5833 5834 5835 5836 5838 5840